| time (UTC) | temp F | wind direction | speed knots | gust knots | rain 1hr in | rain 24hr in | rain mn in | humidity % | barometer mb |
| 20260502170404 | 45 | 330 | 4.3 | 12.2 | 0.00 | 0.02 | 0.00 | 63 | 1014.4 |
| 20260502163903 | 44 | 334 | 6.1 | 10.4 | 0.00 | 0.03 | 0.00 | 65 | 1014.7 |
| 20260502163403 | 44 | 295 | 6.1 | 11.3 | 0.00 | 0.04 | 0.00 | 66 | 1014.7 |
| 20260502162904 | 43 | 352 | 5.2 | 12.2 | 0.00 | 0.04 | 0.00 | 65 | 1014.7 |
| 20260502162404 | 43 | 3 | 8.7 | 14.8 | 0.00 | 0.05 | 0.00 | 64 | 1014.7 |
| 20260502161904 | 43 | 331 | 6.1 | 12.2 | 0.00 | 0.05 | 0.00 | 64 | 1014.7 |
| 20260502161419 | 43 | 354 | 2.6 | 10.4 | 0.00 | 0.05 | 0.00 | 65 | 1014.7 |
| 20260502160921 | 43 | 342 | 4.3 | 10.4 | 0.00 | 0.06 | 0.00 | 64 | 1014.7 |
| 20260502160423 | 43 | 305 | 6.1 | 10.4 | 0.00 | 0.06 | 0.00 | 64 | 1014.8 |
| 20260502151904 | 43 | 332 | 6.1 | 10.4 | 0.00 | 0.06 | 0.00 | 60 | 1014.8 |
| 20260502151404 | 43 | 295 | 5.2 | 10.4 | 0.00 | 0.06 | 0.00 | 61 | 1014.7 |
| 20260502150904 | 43 | 299 | 5.2 | 10.4 | 0.00 | 0.06 | 0.00 | 61 | 1014.6 |
| 20260502150403 | 43 | 326 | 5.2 | 8.7 | 0.00 | 0.06 | 0.00 | 59 | 1014.6 |
| 20260502130404 | 39 | 298 | 5.2 | 8.7 | 0.00 | 0.06 | 0.00 | 68 | 1015.2 |
| 20260502123403 | 38 | 269 | 5.2 | 8.7 | 0.00 | 0.06 | 0.00 | 70 | 1015.2 |
| 20260502122903 | 38 | 285 | 2.6 | 6.1 | 0.00 | 0.06 | 0.00 | 72 | 1015.2 |
| 20260502122403 | 38 | 315 | 4.3 | 7.0 | 0.00 | 0.06 | 0.00 | 70 | 1015.2 |
| 20260502121903 | 38 | 321 | 4.3 | 7.8 | 0.00 | 0.06 | 0.00 | 73 | 1015.2 |
| 20260502121404 | 38 | 310 | 3.5 | 7.0 | 0.00 | 0.06 | 0.00 | 74 | 1015.1 |
| 20260502120904 | 37 | 306 | 4.3 | 7.0 | 0.00 | 0.06 | 0.00 | 74 | 1015.2 |
| 20260502120403 | 37 | 324 | 4.3 | 10.4 | 0.00 | 0.06 | 0.00 | 73 | 1015.2 |
| 20260502115903 | 37 | 339 | 3.5 | 10.4 | 0.00 | 0.06 | 0.00 | 73 | 1015.2 |
| 20260502115403 | 37 | 321 | 4.3 | 8.7 | 0.00 | 0.06 | 0.00 | 74 | 1015.2 |
| 20260502114903 | 37 | 314 | 3.5 | 10.4 | 0.00 | 0.06 | 0.00 | 74 | 1015.3 |
| 20260502113904 | 36 | 320 | 4.3 | 7.0 | 0.00 | 0.06 | 0.00 | 75 | 1015.2 |
| 20260502113403 | 36 | 335 | 2.6 | 7.0 | 0.00 | 0.06 | 0.00 | 76 | 1015.2 |
| 20260502112403 | 35 | 321 | 1.7 | 5.2 | 0.00 | 0.06 | 0.00 | 78 | 1015.1 |
| 20260502111904 | 35 | 310 | 2.6 | 6.1 | 0.00 | 0.06 | 0.00 | 78 | 1015.1 |
| 20260502111403 | 35 | 306 | 1.7 | 5.2 | 0.00 | 0.06 | 0.00 | 79 | 1015.1 |
| 20260502110403 | 34 | 293 | 2.6 | 5.2 | 0.00 | 0.06 | 0.00 | 79 | 1015.1 |
| 20260502105904 | 34 | 310 | 2.6 | 5.2 | 0.00 | 0.06 | 0.00 | 79 | 1015.1 |
| 20260502105404 | 34 | 292 | 2.6 | 7.8 | 0.00 | 0.06 | 0.00 | 79 | 1015.1 |
| 20260502104904 | 34 | 317 | 2.6 | 5.2 | 0.00 | 0.06 | 0.00 | 80 | 1015.0 |
| 20260502103904 | 34 | 300 | 2.6 | 5.2 | 0.00 | 0.06 | 0.00 | 81 | 1014.9 |
| 20260502103404 | 34 | 311 | 2.6 | 6.1 | 0.00 | 0.06 | 0.00 | 81 | 1014.9 |
| 20260502102904 | 34 | 309 | 2.6 | 5.2 | 0.00 | 0.06 | 0.00 | 81 | 1014.8 |
| 20260502102404 | 34 | 320 | 2.6 | 2.6 | 0.00 | 0.06 | 0.00 | 82 | 1014.8 |
| 20260502101404 | 33 | 312 | 3.5 | 7.0 | 0.00 | 0.06 | 0.00 | 83 | 1014.7 |
| 20260502100904 | 33 | 333 | 0.9 | 5.2 | 0.00 | 0.06 | 0.00 | 83 | 1014.7 |
| 20260502100404 | 33 | 311 | 3.5 | 6.1 | 0.00 | 0.06 | 0.00 | 84 | 1014.7 |
| 20260502091404 | 34 | 308 | 1.7 | 2.6 | 0.00 | 0.06 | 0.00 | 82 | 1014.3 |
| 20260502071403 | 36 | 300 | 3.5 | 6.1 | 0.00 | 0.06 | 0.00 | 80 | 1013.9 |
| 20260502070904 | 36 | 317 | 4.3 | 6.1 | 0.00 | 0.06 | 0.00 | 82 | 1014.0 |
| 20260502070403 | 36 | 288 | 2.6 | 5.2 | 0.00 | 0.06 | 0.00 | 82 | 1014.0 |
| 20260502065903 | 36 | 302 | 1.7 | 2.6 | 0.00 | 0.06 | 0.00 | 81 | 1014.0 |
| 20260502065403 | 36 | 310 | 1.7 | 2.6 | 0.00 | 0.06 | 0.00 | 81 | 1014.0 |
| 20260502064903 | 36 | 318 | 1.7 | 5.2 | 0.00 | 0.06 | 0.00 | 80 | 1013.9 |
| 20260502063904 | 36 | 322 | 1.7 | 2.6 | 0.00 | 0.06 | 0.00 | 80 | 1013.9 |
| 20260502062403 | 37 | 334 | 0.9 | 2.6 | 0.00 | 0.06 | 0.00 | 79 | 1014.0 |
| 20260502061903 | 37 | 331 | 0.9 | 5.2 | 0.00 | 0.06 | 0.00 | 79 | 1014.0 |
| 20260502061403 | 37 | 320 | 1.7 | 2.6 | 0.00 | 0.06 | 0.00 | 79 | 1014.1 |
| 20260502060904 | 37 | 321 | 1.7 | 2.6 | 0.00 | 0.06 | 0.00 | 78 | 1014.0 |
| 20260502060404 | 37 | 327 | 1.7 | 2.6 | 0.00 | 0.06 | 0.00 | 78 | 1014.0 |
| 20260502055904 | 37 | 327 | 1.7 | 4.3 | 0.00 | 0.06 | 0.00 | 78 | 1014.0 |
| 20260502055404 | 37 | 332 | 1.7 | 2.6 | 0.00 | 0.06 | 0.00 | 77 | 1014.0 |
| 20260502054904 | 38 | 340 | 1.7 | 2.6 | 0.00 | 0.06 | 0.00 | 77 | 1014.1 |
| 20260502054403 | 38 | 325 | 0.9 | 5.2 | 0.00 | 0.06 | 0.00 | 77 | 1014.0 |
| 20260502052903 | 38 | 350 | 1.7 | 7.0 | 0.00 | 0.06 | 0.00 | 75 | 1014.1 |
| 20260502052404 | 38 | 354 | 3.5 | 7.0 | 0.00 | 0.06 | 0.00 | 75 | 1014.0 |
| 20260502051904 | 38 | 356 | 2.6 | 7.8 | 0.00 | 0.06 | 0.00 | 75 | 1013.9 |
| 20260502051404 | 39 | 2 | 2.6 | 7.0 | 0.00 | 0.06 | 0.00 | 75 | 1013.7 |
| 20260502050904 | 39 | 3 | 4.3 | 6.1 | 0.00 | 0.06 | 0.00 | 74 | 1013.6 |
| 20260502050403 | 39 | 11 | 4.3 | 7.8 | 0.00 | 0.06 | 0.00 | 75 | 1013.5 |
| 20260502045404 | 39 | 3 | 5.2 | 12.2 | 0.00 | 0.06 | 0.00 | 75 | 1013.6 |
| 20260502044904 | 39 | 11 | 4.3 | 7.8 | 0.00 | 0.06 | 0.00 | 75 | 1013.5 |
| 20260502044404 | 40 | 332 | 2.6 | 10.4 | 0.00 | 0.06 | 0.00 | 74 | 1013.4 |
| 20260502043903 | 40 | 330 | 6.1 | 10.4 | 0.00 | 0.06 | 0.00 | 73 | 1013.4 |
| 20260502043403 | 40 | 314 | 3.5 | 10.4 | 0.00 | 0.06 | 0.00 | 72 | 1013.3 |
| 20260502042904 | 41 | 346 | 3.5 | 7.0 | 0.00 | 0.06 | 0.00 | 70 | 1013.3 |
| 20260502041904 | 41 | 326 | 4.3 | 11.3 | 0.00 | 0.06 | 0.00 | 68 | 1013.2 |
| 20260502041403 | 42 | 328 | 2.6 | 8.7 | 0.00 | 0.06 | 0.00 | 68 | 1013.2 |
| 20260502040903 | 42 | 316 | 5.2 | 10.4 | 0.00 | 0.06 | 0.00 | 68 | 1013.1 |
| 20260502040404 | 42 | 319 | 4.3 | 8.7 | 0.00 | 0.06 | 0.00 | 67 | 1013.1 |
| 20260502035904 | 42 | 309 | 5.2 | 10.4 | 0.00 | 0.06 | 0.06 | 68 | 1013.2 |
| 20260502035404 | 42 | 320 | 4.3 | 10.4 | 0.00 | 0.06 | 0.06 | 69 | 1013.2 |
| 20260502034903 | 42 | 313 | 5.2 | 7.0 | 0.00 | 0.06 | 0.06 | 73 | 1013.1 |
| 20260502034404 | 41 | 308 | 4.3 | 7.0 | 0.00 | 0.06 | 0.06 | 76 | 1013.2 |
| 20260502033904 | 41 | 307 | 5.2 | 7.8 | 0.00 | 0.06 | 0.06 | 76 | 1013.1 |
| 20260502033404 | 41 | 301 | 2.6 | 7.0 | 0.00 | 0.06 | 0.06 | 79 | 1013.1 |
| 20260502032904 | 41 | 281 | 2.6 | 6.1 | 0.00 | 0.06 | 0.06 | 78 | 1013.0 |
| 20260502032404 | 41 | 282 | 2.6 | 5.2 | 0.00 | 0.06 | 0.06 | 78 | 1013.0 |
| 20260502031903 | 41 | 283 | 1.7 | 4.3 | 0.00 | 0.06 | 0.06 | 77 | 1013.1 |
| 20260502031403 | 41 | 258 | 1.7 | 2.6 | 0.00 | 0.06 | 0.06 | 77 | 1013.1 |
| 20260502030904 | 42 | 260 | 1.7 | 2.6 | 0.00 | 0.06 | 0.06 | 77 | 1013.1 |
| 20260502030404 | 42 | 262 | 1.7 | 2.6 | 0.00 | 0.06 | 0.06 | 78 | 1013.1 |
| 20260502025903 | 42 | 254 | 1.7 | 2.6 | 0.00 | 0.06 | 0.06 | 78 | 1013.2 |
| 20260502024904 | 42 | 238 | 1.7 | 2.6 | 0.00 | 0.06 | 0.06 | 77 | 1013.2 |
| 20260502024404 | 42 | 273 | 1.7 | 4.3 | 0.00 | 0.06 | 0.06 | 77 | 1013.3 |
| 20260502023903 | 42 | 258 | 1.7 | 2.6 | 0.00 | 0.06 | 0.06 | 77 | 1013.2 |
| 20260502022904 | 42 | 263 | 1.7 | 5.2 | 0.00 | 0.06 | 0.06 | 77 | 1013.2 |
| 20260502022404 | 42 | 294 | 2.6 | 4.3 | 0.00 | 0.06 | 0.06 | 78 | 1013.3 |
| 20260502021904 | 42 | 285 | 1.7 | 2.6 | 0.00 | 0.06 | 0.06 | 76 | 1013.3 |
| 20260502021403 | 42 | 319 | 0.0 | 2.6 | 0.00 | 0.06 | 0.06 | 76 | 1013.2 |
| 20260502020903 | 42 | 359 | 0.9 | 2.6 | 0.00 | 0.06 | 0.06 | 76 | 1013.3 |
| 20260502015904 | 43 | 308 | 4.3 | 7.0 | 0.00 | 0.06 | 0.06 | 75 | 1013.2 |
| 20260502015404 | 43 | 315 | 5.2 | 7.8 | 0.00 | 0.06 | 0.06 | 76 | 1013.1 |
| 20260502014903 | 43 | 311 | 4.3 | 6.1 | 0.00 | 0.06 | 0.06 | 77 | 1013.1 |
| 20260502014403 | 43 | 284 | 2.6 | 7.0 | 0.00 | 0.06 | 0.06 | 77 | 1013.0 |
| 20260502013903 | 43 | 279 | 4.3 | 7.8 | 0.00 | 0.06 | 0.06 | 77 | 1013.0 |
| 20260502013403 | 43 | 280 | 4.3 | 7.0 | 0.00 | 0.06 | 0.06 | 78 | 1012.9 |
| 20260502012904 | 43 | 251 | 0.9 | 4.3 | 0.00 | 0.06 | 0.06 | 78 | 1012.9 |
| 20260502012404 | 43 | 258 | 3.5 | 7.0 | 0.00 | 0.06 | 0.06 | 77 | 1012.8 |
| 20260502011904 | 43 | 265 | 3.5 | 7.8 | 0.00 | 0.06 | 0.06 | 77 | 1012.7 |
| 20260502011404 | 43 | 265 | 2.6 | 5.2 | 0.00 | 0.06 | 0.06 | 77 | 1012.7 |
| 20260502010403 | 43 | 283 | 5.2 | 7.8 | 0.00 | 0.06 | 0.06 | 77 | 1012.6 |
| 20260502005904 | 43 | 270 | 2.6 | 5.2 | 0.00 | 0.06 | 0.06 | 76 | 1012.5 |
| 20260502005404 | 42 | 279 | 0.9 | 2.6 | 0.00 | 0.06 | 0.06 | 77 | 1012.4 |
| 20260502004904 | 42 | 289 | 0.9 | 1.7 | 0.00 | 0.06 | 0.06 | 77 | 1012.4 |
| 20260502004403 | 43 | 291 | 0.0 | 0.0 | 0.00 | 0.06 | 0.06 | 76 | 1012.3 |
| 20260502003903 | 43 | 291 | 0.0 | 0.9 | 0.00 | 0.06 | 0.06 | 74 | 1012.2 |
| 20260502003403 | 43 | 291 | 0.0 | 0.9 | 0.00 | 0.06 | 0.06 | 73 | 1012.1 |
| 20260502002404 | 44 | 292 | 0.0 | 0.0 | 0.00 | 0.06 | 0.06 | 73 | 1011.9 |
| 20260502001903 | 44 | 291 | 0.0 | 0.0 | 0.00 | 0.06 | 0.06 | 72 | 1011.9 |
| 20260502000403 | 45 | 291 | 0.0 | 0.9 | 0.00 | 0.06 | 0.06 | 70 | 1011.8 |
| 20260501235903 | 45 | 287 | 0.0 | 0.9 | 0.00 | 0.06 | 0.06 | 70 | 1011.8 |
| 20260501235403 | 45 | 309 | 0.9 | 1.7 | 0.00 | 0.06 | 0.06 | 70 | 1011.9 |
| 20260501234903 | 45 | 293 | 0.9 | 1.7 | 0.00 | 0.06 | 0.06 | 71 | 1011.8 |
| 20260501234403 | 45 | 302 | 0.9 | 1.7 | 0.00 | 0.06 | 0.06 | 70 | 1011.7 |
| 20260501233904 | 45 | 295 | 0.9 | 1.7 | 0.00 | 0.06 | 0.06 | 70 | 1011.7 |
| 20260501233403 | 45 | 295 | 0.9 | 1.7 | 0.00 | 0.06 | 0.06 | 70 | 1011.7 |
| 20260501232903 | 45 | 299 | 0.9 | 1.7 | 0.00 | 0.06 | 0.06 | 70 | 1011.8 |
| 20260501232403 | 45 | 309 | 1.7 | 2.6 | 0.00 | 0.06 | 0.06 | 69 | 1011.7 |
| 20260501231904 | 46 | 318 | 1.7 | 2.6 | 0.00 | 0.06 | 0.06 | 70 | 1011.6 |
| 20260501231404 | 46 | 294 | 0.9 | 2.6 | 0.00 | 0.06 | 0.06 | 69 | 1011.6 |
| 20260501230403 | 46 | 284 | 0.9 | 2.6 | 0.00 | 0.06 | 0.06 | 69 | 1011.6 |
| 20260501225903 | 46 | 294 | 1.7 | 2.6 | 0.00 | 0.06 | 0.06 | 70 | 1011.6 |
| 20260501224904 | 46 | 291 | 2.6 | 2.6 | 0.00 | 0.06 | 0.06 | 70 | 1011.6 |
| 20260501224404 | 46 | 312 | 0.9 | 2.6 | 0.00 | 0.06 | 0.06 | 69 | 1011.5 |
| 20260501223903 | 46 | 307 | 1.7 | 2.6 | 0.00 | 0.06 | 0.06 | 69 | 1011.6 |
| 20260501222904 | 46 | 289 | 2.6 | 4.3 | 0.00 | 0.06 | 0.06 | 68 | 1011.5 |
| 20260501222404 | 46 | 278 | 0.9 | 2.6 | 0.00 | 0.06 | 0.06 | 70 | 1011.5 |
| 20260501221904 | 46 | 274 | 1.7 | 2.6 | 0.00 | 0.06 | 0.06 | 71 | 1011.5 |
| 20260501221404 | 46 | 289 | 1.7 | 2.6 | 0.00 | 0.06 | 0.06 | 70 | 1011.5 |
| 20260501220904 | 46 | 215 | 0.9 | 2.6 | 0.00 | 0.06 | 0.06 | 70 | 1011.5 |
| 20260501220404 | 46 | 253 | 0.9 | 2.6 | 0.00 | 0.06 | 0.06 | 71 | 1011.5 |
| 20260501215404 | 46 | 210 | 2.6 | 2.6 | 0.00 | 0.06 | 0.06 | 73 | 1011.5 |
| 20260501214904 | 46 | 285 | 2.6 | 4.3 | 0.00 | 0.06 | 0.06 | 74 | 1011.5 |
| 20260501214404 | 46 | 279 | 1.7 | 2.6 | 0.00 | 0.06 | 0.06 | 72 | 1011.5 |
| 20260501213904 | 45 | 248 | 0.9 | 2.6 | 0.00 | 0.06 | 0.06 | 75 | 1011.5 |
| 20260501212904 | 45 | 249 | 1.7 | 2.6 | 0.00 | 0.06 | 0.06 | 74 | 1011.6 |
| 20260501212404 | 45 | 273 | 1.7 | 2.6 | 0.00 | 0.06 | 0.06 | 76 | 1011.6 |
| 20260501211904 | 45 | 204 | 1.7 | 2.6 | 0.00 | 0.06 | 0.06 | 76 | 1011.4 |
| 20260501211404 | 45 | 274 | 1.7 | 4.3 | 0.00 | 0.06 | 0.06 | 76 | 1011.4 |
| 20260501210904 | 45 | 225 | 1.7 | 4.3 | 0.00 | 0.06 | 0.06 | 76 | 1011.4 |
| 20260501210404 | 45 | 258 | 0.9 | 2.6 | 0.00 | 0.06 | 0.06 | 76 | 1011.5 |
| 20260501205904 | 45 | 239 | 1.7 | 2.6 | 0.00 | 0.06 | 0.06 | 77 | 1011.5 |
| 20260501205403 | 45 | 266 | 1.7 | 4.3 | 0.00 | 0.06 | 0.06 | 78 | 1011.4 |
| 20260501204403 | 44 | 247 | 1.7 | 4.3 | 0.00 | 0.06 | 0.06 | 78 | 1011.3 |
| 20260501203403 | 44 | 211 | 1.7 | 4.3 | 0.00 | 0.06 | 0.06 | 80 | 1011.3 |
| 20260501202903 | 44 | 246 | 2.6 | 7.8 | 0.00 | 0.06 | 0.06 | 78 | 1011.3 |
| 20260501202403 | 44 | 209 | 1.7 | 5.2 | 0.00 | 0.06 | 0.06 | 80 | 1011.3 |
| 20260501201904 | 44 | 197 | 1.7 | 6.1 | 0.00 | 0.06 | 0.06 | 82 | 1011.3 |
| 20260501200904 | 43 | 215 | 4.3 | 7.8 | 0.00 | 0.06 | 0.06 | 80 | 1011.4 |
| 20260501200403 | 43 | 213 | 5.2 | 7.8 | 0.00 | 0.06 | 0.06 | 80 | 1011.4 |
| 20260501195904 | 43 | 211 | 5.2 | 7.8 | 0.00 | 0.06 | 0.06 | 80 | 1011.4 |
| 20260501195403 | 44 | 204 | 5.2 | 7.8 | 0.00 | 0.06 | 0.06 | 81 | 1011.4 |
| 20260501194403 | 43 | 191 | 1.7 | 5.2 | 0.00 | 0.06 | 0.06 | 82 | 1011.6 |
| 20260501193904 | 43 | 221 | 1.7 | 4.3 | 0.00 | 0.06 | 0.06 | 82 | 1011.7 |
| 20260501193404 | 43 | 215 | 0.9 | 2.6 | 0.00 | 0.06 | 0.06 | 81 | 1011.8 |
| 20260501192904 | 43 | 218 | 0.9 | 2.6 | 0.01 | 0.06 | 0.06 | 82 | 1011.8 |
| 20260501191904 | 42 | 250 | 0.9 | 2.6 | 0.01 | 0.06 | 0.06 | 82 | 1011.9 |
| 20260501190904 | 41 | 277 | 0.9 | 2.6 | 0.01 | 0.06 | 0.06 | 82 | 1012.1 |
| 20260501190404 | 41 | 289 | 1.7 | 2.6 | 0.01 | 0.06 | 0.06 | 82 | 1012.2 |
| 20260501184904 | 41 | 293 | 0.9 | 1.7 | 0.01 | 0.06 | 0.06 | 84 | 1012.3 |
| 20260501184404 | 41 | 287 | 1.7 | 2.6 | 0.01 | 0.06 | 0.06 | 83 | 1012.3 |
| 20260501183903 | 41 | 291 | 1.7 | 2.6 | 0.01 | 0.06 | 0.06 | 84 | 1012.4 |
| 20260501183404 | 41 | 314 | 2.6 | 5.2 | 0.01 | 0.06 | 0.06 | 82 | 1012.4 |
| 20260501182903 | 41 | 303 | 3.5 | 4.3 | 0.00 | 0.05 | 0.05 | 82 | 1012.4 |
| 20260501181903 | 41 | 281 | 2.6 | 5.2 | 0.01 | 0.05 | 0.05 | 81 | 1012.4 |
| 20260501181404 | 41 | 291 | 2.6 | 4.3 | 0.01 | 0.05 | 0.05 | 82 | 1012.4 |
| 20260501180904 | 41 | 313 | 0.9 | 2.6 | 0.01 | 0.05 | 0.05 | 84 | 1012.4 |
| 20260501180404 | 41 | 11 | 0.0 | 2.6 | 0.01 | 0.05 | 0.05 | 83 | 1012.4 |